アトラス彗星

C/2021 P4 ( ATLAS )

English version
Home page
Updated on February 10, 2025

---------------------------------------------------------------------

・ プロフィール

発見日 2021年8月10日
発見光度 19.4等
発見者 Asteroid Terrestrial-Impact Last Alert System (ATLAS) search program

・ 写真集

・ 軌道要素

Epoch 2023 Feb. 25.0 TT = JDT 2460000.5
T 2022 July 30.36020 TT                                 Rudenko
q   1.0803621            (2000.0)            P               Q
z  +0.0031828      Peri.  175.81257     -0.96751320     -0.18559218
 +/-0.0000025      Node   348.09258     +0.20099332     -0.15272444
e   0.9965614      Incl.   56.31069     +0.15336199     -0.97068573
>From 966 observations 2021 Aug. 10-2023 Jan. 2, mean residual 0".6.

・ 星図

・ 光度変化

        m1 = 7.8 + 5 logΔ + 11.5 log r  [ ,0]  (              〜2022年 7月30日)
        m1 = 7.5 + 5 logΔ + 20.0 log r  [0, ]  (2022年 7月30日〜              )

---------------------------------------------------------------------

軌道要素はM.P.E.C. 2023-A16に掲載されたものです。
星図はステラナビゲータ Ver.10 (アストロアーツ) で作成したものです。
光度グラフはComet for Windowsで作成したものです。

---------------------------------------------------------------------

Copyright(C) Seiichi Yoshida (comet@aerith.net). All rights reserved.